#timestamp,LO_Frequency,Hit,StdDev 
1594998015.8,286046998.9,N
1594998035.7,286047000.5,N
1594998055.5,286047002.7,N
1594998075.3,286047002.3,N
1594998095.2,286047004.2,N
1594998115.0,286047003.3,N
1594998115.9,286047003.3,N
1594998135.8,286047003.7,N
1594998155.6,286047003.6,N
1594998175.4,286047004.3,N
1594998195.3,286047002.1,N
1594998215.1,286047002.1,N
1594998235.8,286047001.6,N
1594998255.7,286047002.8,N
1594998275.5,286047003.9,N
1594998295.4,286047003.1,N
1594998315.2,286047001.8,N
1594998335.0,286047004.4,N
1594998335.9,286047004.4,N
1594998355.8,286047001.6,N
1594998375.6,286047002.0,N
1594998395.5,286047000.7,N
1594998415.3,286046998.3,N
1594998435.1,286046999.3,N
1594998455.9,286046999.3,N
1594998475.7,286046999.4,N
1594998495.6,286046998.7,N
1594998515.4,286047001.1,N
1594998535.2,286046998.7,N
1594998555.1,286047001.2,N
1594998556.0,286047001.2,N
1594998575.8,286047000.9,N
1594998595.7,286046999.9,N
1594998615.5,286047000.7,N
1594998635.3,286046999.9,N
1594998655.2,286047000.5,N
1594998675.0,286047000.4,N
1594998675.9,286047000.4,N
1594998695.8,286047000.0,N
1594998715.6,286047002.4,N
1594998735.4,286047000.7,N
1594998755.3,286047000.8,N
1594998775.1,286047001.1,N
1594998795.9,286047001.2,N
1594998815.7,286046998.8,N
1594998835.5,286046998.7,N
1594998855.4,286046999.6,N
1594998875.2,286046996.6,N
1594998895.0,286046999.4,N
1594998895.9,286046999.4,N
1594998915.8,286046997.2,N
1594998935.6,286046996.7,N
1594998955.5,286046999.2,N
1594998975.3,286046997.4,N
1594998995.1,286046999.4,N
1594999015.9,286046999.0,N
1594999035.7,286046998.9,N
1594999055.6,286046999.5,N
1594999075.4,286046998.7,N
1594999095.2,286046998.9,N
1594999115.1,286046996.6,N
1594999116.0,286046996.6,N
1594999135.8,286046998.3,N
1594999155.7,286046998.7,N
1594999175.5,286046999.2,N
1594999195.3,286046998.1,N
1594999215.2,286047000.3,N
1594999235.0,286046999.7,N
1594999235.9,286046999.7,N
1594999255.7,286047000.6,N
1594999275.6,286047000.3,N
1594999295.4,286047000.5,N
1594999315.3,286047000.9,N
1594999335.1,286047000.8,N
1594999355.8,286047001.0,N
1594999375.7,286047000.5,N
1594999395.5,286047000.2,N
1594999415.4,286047001.0,N
1594999435.2,286047000.0,N
1594999455.0,286047002.8,N
1594999455.9,286047002.8,N
1594999475.8,286047000.4,N
1594999495.6,286046999.8,N
1594999515.4,286047002.2,N
1594999535.3,286046999.9,N
1594999555.1,286047002.8,N
1594999575.9,286047000.1,N
1594999595.7,286047000.1,N
1594999615.5,286046999.8,N
1594999635.4,286047000.2,N
1594999655.2,286047000.7,N
1594999675.0,286046998.5,N
1594999676.0,286046998.5,N
1594999695.8,286046998.4,N
1594999715.6,286047000.1,N
1594999735.5,286047000.5,N
1594999755.3,286047001.0,N
1594999775.1,286047002.6,N
1594999795.9,286047002.2,N
1594999815.7,286047002.5,N
1594999835.6,286047002.7,N
1594999855.4,286047000.5,N
1594999875.2,286046999.8,N
1594999895.1,286047000.2,N
1594999896.0,286047000.2,N
1594999915.8,286047002.5,N
1594999935.7,286047002.6,N
1594999955.5,286047003.9,N
1594999975.3,286047001.3,N
1594999995.2,286047002.5,N
1595000015.0,286047002.5,N
1595000015.9,286047002.5,N
1595000065.8,286047000.7,E
1595000075.7,286047000.0,N
1595000095.5,286047000.9,P
1595000115.4,286047001.1,N
1595000135.2,286046998.2,Y
1595000155.1,286046999.0,P
1595000156.0,286046999.0,N
1595000175.8,286046999.6,N
1595000195.6,286046998.7,N
1595000215.5,286046999.8,N
1595000235.3,286047001.2,N
1595000255.2,286046998.7,N
1595000275.9,286046998.6,N
1595000295.7,286046998.3,N
1595000315.6,286046999.1,N
1595000335.4,286046998.4,N
1595000355.3,286046998.8,N
1595000375.1,286046998.7,N
1595000376.0,286046998.7,N
1595000395.8,286047001.2,N
1595000415.7,286046998.1,N
1595000435.5,286046998.8,N
1595000455.3,286046998.2,N
1595000475.2,286046998.2,N
1595000495.0,286046998.1,N
1595000495.9,286046998.1,N
1595000515.8,286046998.7,N
1595000535.6,286047000.7,N
1595000555.4,286047001.1,N
1595000575.3,286047000.9,N
1595000595.1,286047000.9,N
1595000615.9,286047001.1,N
1595000635.7,286047001.2,N
1595000655.5,286046998.5,N
1595000675.4,286046998.8,N
1595000695.2,286047001.1,N
1595000715.1,286047001.1,N
1595000716.0,286047001.1,N
1595000735.8,286046998.9,N
1595000755.6,286046998.4,N
1595000775.5,286046998.6,N
1595000795.3,286047000.8,N
1595000815.1,286046998.3,N
1595000835.9,286046998.4,N
1595000855.7,286046998.2,N
1595000875.6,286046998.2,N
1595000895.4,286046998.7,N
1595000915.2,286047001.1,N
1595000935.1,286047000.7,N
1595000936.0,286047000.7,N
1595000955.8,286047001.0,N
1595000975.7,286046999.7,N
1595000995.5,286047001.9,N
1595001015.3,286047002.2,N
1595001035.2,286047000.5,N
1595001055.0,286046998.2,N
1595001055.9,286046998.2,N
1595001075.7,286046998.6,N
1595001095.6,286047000.7,N
1595001115.4,286046998.1,N
1595001135.3,286047000.7,N
1595001155.1,286047002.4,N
1595001156.0,286047002.4,N
1595001175.8,286047000.9,N
1595001195.7,286047000.7,N
1595001215.5,286047000.6,N
1595001235.4,286047000.3,N
1595001255.2,286047000.3,N
1595001275.0,286047000.7,N
1595001275.9,286047000.7,N
1595001295.8,286047000.8,N
1595001315.6,286047001.1,N
1595001335.4,286047002.3,N
1595001355.3,286047001.6,N
1595001375.1,286047002.8,N
1595001395.9,286046999.9,N
1595001415.7,286047001.0,N
1595001435.5,286047000.0,N
1595001455.4,286046998.3,N
1595001475.2,286046998.2,N
1595001495.1,286047001.0,N
1595001496.0,286047001.0,N
1595001515.8,286047000.3,N
1595001535.6,286047001.0,N
1595001555.5,286047002.4,N
1595001575.3,286047001.6,N
1595001595.2,286047004.4,Y
